Simultaneous Nadir Overpasses (SNOs) Predictions

Prediction of SNOs between NOAA-19 and METOP-C Satellite Orbit:

Table of predicted SNOs for the next 14.0 days since TLE Epoch: 5/1/2020
Index Date (NOAA-19) Time (NOAA-19) Lat,Lon (NOAA-19) SZA (NOAA-19 ) Date (METOP-C) Time (METOP-C) Lat,Lon (METOP-C) SZA (METOP-C ) Distance(km) Time Diff (sec)
1 05/03/2020 09:03:28 -79.96,-114.47 115.17 05/03/2020 09:04:43 -79.93,-114.27 115.16 4.85 75
2 05/03/2020 09:54:33 79.95, 52.91 64.82 05/03/2020 09:55:24 79.92, 52.98 64.82 2.86 51
3 05/03/2020 10:45:28 -79.94,-139.77 115.19 05/03/2020 10:46:05 -79.92,-139.73 115.20 2.77 37
4 05/03/2020 11:36:33 79.93, 27.61 64.80 05/03/2020 11:36:46 79.91, 27.52 64.78 2.86 13
5 05/03/2020 12:27:28 -79.93,-165.08 115.21 05/03/2020 12:27:27 -79.91,-165.18 115.24 2.99 1
6 05/03/2020 13:18:32 79.91, 2.31 64.78 05/03/2020 13:18:06 79.93, 2.35 64.79 1.77 26
7 05/03/2020 14:09:27 -79.91, 169.61 115.23 05/03/2020 14:08:47 -79.92, 169.65 115.23 1.67 40
8 05/03/2020 15:00:32 79.90, -23.00 64.76 05/03/2020 14:59:28 79.92, -23.10 64.75 2.76 64
9 05/03/2020 15:51:21 -79.74, 146.11 115.25 05/03/2020 15:50:15 -79.73, 142.48 115.56 72.11 66
10 05/14/2020 10:16:59 -79.95,-132.30 118.05 05/14/2020 10:18:07 -79.97,-132.23 118.01 2.85 68
11 05/14/2020 11:08:05 79.95, 34.88 61.94 05/14/2020 11:08:48 79.94, 34.82 61.94 1.70 43
12 05/14/2020 11:58:59 -79.93,-157.60 118.07 05/14/2020 11:59:29 -79.96,-157.68 118.04 3.25 30
13 05/14/2020 12:50:05 79.94, 9.57 61.93 05/14/2020 12:50:09 79.96, 9.65 61.95 2.92 4
14 05/14/2020 13:41:00 -79.94, 176.78 118.09 05/14/2020 13:40:51 -79.95, 176.86 118.08 1.61 9
15 05/14/2020 14:32:05 79.92, -15.74 61.91 05/14/2020 14:31:31 79.95, -15.81 61.92 3.13 34
16 05/14/2020 15:23:00 -79.93, 151.47 118.10 05/14/2020 15:22:13 -79.94, 151.40 118.12 1.63 47




NCC Satellite Simultaneous Nadir Overpasses (SNOs) Prediction Service
